Location: Unnamed
(54.5186°N, 36.2255°E)
Time: 21:41:21
(UTC+03:00)

ISS - Pass Details

Date: 24 February 2026
Orbit: 416 x 427 km, 51.6° (Epoch: 6 March)

Event Time Altitude Azimuth Distance (km) Brightness Sun altitude
Exits shadow 05:31:06 51° 193° (SSW) 533 -3.5 -18.9°
Maximum altitude 05:31:17 52° 179° (S) 527 -3.4 -18.9°
Drops below altitude 10° 05:34:33 10° 102° (ESE) 1,495 0.1 -18.4°
Sets 05:36:40 0° 97° (E) 2,357 1.5 -18.1°
